Home > Time Zones > World Clock > Weather > Iran > Yazd > Past weeks

Flag for Iran Weather past 2 weeks in Yazd, Iran

Now
82 °F

Passing clouds.


Feels Like: 80 °F
Forecast: 77 / 107 °F
Wind: 7 mph from West

Location: Yazd Airport

Current Time: Aug 2, 2014 at 7:27:12 AM

Latest Report: Aug 2, 2014 at 6:30 AM


Visibility: N/A

Pressure: 29.89 "Hg

Humidity: 11%

Dew point: 23 °F

Location of YazdLocation

Historic Weather in Yazd — Graph

°F

Yazd temperature yesterday

Maximum temperature yesterday: 104 °F (at 4:30 PM)
Minimum temperature yesterday: 81 °F (at 5:30 AM)
Average temperature yesterday: 93 °F

Past Weeks' High & Low Weather Summary

 TemperatureHumidityPressure
High111 °F (Jul 28, 3:30 PM)31% (Jul 29, 8:30 AM)29.95 "Hg (Jul 29, 8:30 AM)
Low77 °F (Jul 19, 6:30 AM)2% (Jul 21, 10:20 AM)29.62 "Hg (Jul 21, 7:00 PM)
Average94 °F10%29.80 "Hg
* Reported Jul 18 6:30 AM — Aug 2 6:30 AM, Yazd, Weather by CustomWeather, © 2014

Note: Actual official high and low records may vary slightly from our data, if they occured in-between our weather recording intervals... More about our weather records

Advertising

Yazd weather history for previous 24 hours

 ConditionsComfort  
Time TempWeatherWind HumidityBarometerVisibility
6:30 AM
Aug 2
82 °FPassing clouds.7 mph11%29.89 "HgN/A
5:30 AM84 °FPassing clouds.5 mph10%29.89 "HgN/A
4:30 AM84 °FPassing clouds.7 mph11%29.86 "HgN/A
3:30 AM84 °FPassing clouds.5 mph12%29.86 "Hg5 mi
2:30 AM88 °FPassing clouds.2 mph11%29.86 "Hg4 mi
1:30 AM90 °FPassing clouds.9 mph10%29.83 "Hg5 mi
12:30 AM91 °FClear.5 mph10%29.86 "Hg10 mi
11:30 PM
Aug 1
91 °FClear.7 mph10%29.83 "Hg10 mi
11:00 PM93 °FClear.7 mph10%29.83 "Hg10 mi
10:30 PM95 °FClear.7 mph9%29.83 "Hg10 mi
10:00 PM97 °FClear.9 mph8%29.83 "Hg10 mi
9:30 PM97 °FClear.7 mph8%29.80 "Hg10 mi
9:00 PM99 °FSunny.5 mph8%29.80 "Hg10 mi
8:30 PM99 °FSunny.5 mph8%29.77 "Hg10 mi
8:00 PM99 °FSunny.5 mph8%29.77 "Hg10 mi
7:30 PM102 °FPassing clouds.2 mph7%29.77 "HgN/A
7:00 PM102 °FPassing clouds.5 mph7%29.77 "HgN/A
6:30 PM104 °FPassing clouds.5 mph7%29.77 "HgN/A
5:30 PM104 °FPassing clouds.2 mph7%29.77 "HgN/A
4:30 PM104 °FPassing clouds.5 mph7%29.80 "HgN/A
3:30 PM102 °FPassing clouds.5 mph7%29.83 "HgN/A
2:30 PM100 °FPassing clouds.2 mph8%29.86 "HgN/A
1:30 PM99 °FPassing clouds.7 mph9%29.89 "HgN/A
1:00 PM99 °FPassing clouds.5 mph8%29.89 "HgN/A
12:30 PM99 °FSunny.7 mph9%29.89 "Hg10 mi
12:00 PM97 °FSunny.5 mph9%29.92 "Hg10 mi
11:20 AM95 °FSunny.7 mph9%29.92 "Hg10 mi
11:03 AM95 °FSunny.7 mph9%29.92 "Hg10 mi
10:30 AM91 °FSunny.7 mph11%29.92 "Hg10 mi
10:00 AM90 °FSunny.7 mph11%29.92 "Hg10 mi
9:30 AM86 °FSunny.5 mph13%29.92 "Hg10 mi
9:00 AM86 °FPassing clouds.5 mph13%29.92 "HgN/A
8:30 AM86 °FScattered clouds.7 mph13%29.92 "HgN/A
8:00 AM84 °FPassing clouds.7 mph13%29.92 "HgN/A
7:30 AM82 °FPassing clouds.7 mph15%29.92 "HgN/A
7:00 AM81 °FPassing clouds.7 mph15%29.92 "HgN/A
Weather by CustomWeather, © 2014

See weather overviewHow to use our weather pages